Location: Newark
(42.8481°N, 0.4872°E)
Time: 17:23:25
(UTC+00:00)

Vanguard 1 - Pass Details

Date: 27 October 2020
Orbit: 650 x 3833 km, 34.2° (Epoch: 28 November)

Event Time Altitude Azimuth Distance (km) Brightness Sun altitude
Rises 13:35:31 0° 243° (WSW) 7,623 15.5 28.3°
Reaches altitude 10° 13:40:30 10° 240° (WSW) 6,786 15.5 27.8°
Maximum altitude 14:03:28 62° 167° (SSE) 3,892 13.8 25.4°
Drops below altitude 10° 14:21:07 10° 93° (E) 5,421 13.6 23.3°
Sets 14:24:34 0° 90° (E) 6,090 13.7 22.8°
